Weather in Saransk

Russia / Republic of Mordovia     54˚11′13″N   45˚11′01″E
temp.,
°C
wind,
m/s
gust,
m/s
humid.,
%
clouds,
%
prec.,
mm/h
press.,
hPa
HPBL,
m
30 november, mon
mon3000:00−2˚se6128776 0.0 1041361
03:00−5˚se5118944 0.0 1041331
06:00−5˚se6129070 0.0 1041372
09:00−5˚sse5128973 0.0 1041421
12:00−2˚sse6128670 0.0 1041524
15:00−2˚sse5148659 0.0 1041470
18:00−4˚sse6148753 0.0 1040414
21:00−4˚sse6148533 0.0 1041416
1 december, tue
tue100:00−5˚sse615810 0.0 1040416
03:00−6˚sse514820 0.0 1041387
06:00−7˚sse514845 0.0 1040361
09:00−7˚sse513833 0.0 1041360
12:00−5˚sse611800 0.0 1040427
15:00−5˚se411840 0.0 1040421
18:00−7˚sse4108521 0.0 1040341
21:00−8˚sse4108447 0.0 1041308
2 december, wed
wed200:00−9˚sse498454 0.0 1041278
03:00−9˚sse378673 0.0 1041245
06:00−9˚sse368599 0.0 1041234
09:00−9˚sse368399 0.0 1041239
12:00−8˚sse3581100 0.0 1041245
15:00−8˚sse248492 0.0 1040191
18:00−9˚sse248694 0.0 1040134
21:00−9˚sse248592 0.0 1041126
3 december, thu
thu300:00−10˚sse258448 0.0 1041160
03:00−11˚sse248242 0.0 1042146
06:00−11˚sse24810 0.0 1041135
09:00−11˚sse25800 0.0 1042174
12:00−9˚sse35800 0.0 1042231
15:00−9˚sse248714 0.0 1041162
18:00−10˚sse248641 0.0 1041121
21:00−10˚sse368359 0.0 1041200
4 december, fri
fri400:00−11˚sse368398 0.0 1042184
03:00−11˚sse378570 0.0 1041191
06:00−12˚sse378535 0.0 1042198
09:00−11˚sse378348 0.0 1042189
12:00−9˚sse367858 0.0 1042229
15:00−10˚sse238459 0.0 104179
18:00−10˚se238439 0.0 104256
21:00−11˚sse248245 0.0 104178